RH
66 56 49 53 51 43 49 49 68 48 41 32 29 26 25 22 22 21 23 21 20 27 29 32 37 37 34 37 36 38 35 41 50 60 68 77 80 81 79 76 75 79 76 76
68 47 45 50 43 42 39 35 38 39 42 34 32 29 29 39 40 40 37 33 30 25 24 27 30 33 36 42 49 49 50 53 53 57 65 74 81 84 85 89 86 88 84 79
81 56 59 75 60 44 41 34 38 56 54 47 38 33 32 46 42 42 38 37 36 36 35 33 33 37 42 44 43 42 46 49 52 55 59 66 77 88 89 91 92 92 91 89
85 71 98 54 31 31 33 40 66 66 66 62 57 52 39 41 43 43 41 40 39 38 37 36 38 39 42 40 44 47 44 44 48 55 62 71 77 88 92 93 94 94 94 93
98 91 61 50 41 53 58 64 57 60 56 53 55 53 48 39 39 42 45 45 44 42 39 35 34 36 37 42 43 47 46 48 51 54 59 65 76 87 93 95 96 97 97 97
100 97 94 67 64 56 52 81 57 53 56 54 66 79 63 42 42 44 42 45 46 42 38 36 36 34 36 38 41 43 50 48 47 51 60 67 71 84 90 96 97 98 98 98
95 97 91 81 69 55 80 84 60 69 65 60 62 61 49 50 45 43 44 42 40 38 40 39 38 38 40 38 38 39 43 42 48 54 60 68 75 81 88 95 98 99 100 99
84 91 90 52 45 74 79 55 71 67 66 62 56 53 53 48 49 49 49 44 40 41 43 43 42 40 41 41 39 36 37 40 41 49 57 65 77 85 86 96 100 100 100 100
69 78 47 40 46 65 63 72 68 67 60 56 54 55 56 55 55 52 48 45 42 44 46 44 41 40 44 44 41 42 41 39 38 47 50 53 67 82 92 99 100 100 100 100
66 51 43 40 37 44 43 47 41 34 49 56 62 63 60 58 57 54 50 49 47 50 52 53 48 45 46 44 42 43 46 45 41 46 51 63 78 88 99 100 100 98 100 100
60 51 49 45 45 49 47 47 51 53 59 60 61 63 63 62 57 58 57 57 59 63 64 62 57 55 50 47 45 46 46 45 47 46 56 62 80 97 99 98 98 99 99 99
76 53 56 55 48 42 53 59 58 62 63 62 65 66 65 68 67 67 69 68 67 65 60 58 57 57 56 54 52 52 51 50 55 60 64 70 87 100 100 100 100 100 100 100
53 51 49 50 45 56 59 59 58 61 58 56 62 75 78 82 78 77 73 67 67 67 66 66 67 66 60 59 61 63 60 55 58 66 68 71 98 99 100 100 100 100 100 100
47 48 58 53 68 55 56 59 63 63 67 73 77 77 82 82 78 78 72 71 69 73 79 80 80 81 72 72 69 65 64 64 61 68 74 86 98 99 100 100 100 100 100 100
52 50 52 56 58 55 65 74 78 80 76 75 72 79 80 87 89 85 74 70 73 79 84 83 82 84 82 85 90 80 68 69 68 74 87 91 97 100 100 100 100 100 100 99
48 50 59 62 70 74 76 81 87 86 79 77 80 81 86 83 83 82 78 81 86 93 92 92 93 94 95 94 95 96 78 72 73 82 96 100 100 99 100 100 100 100 100 100
59 71 75 86 83 86 86 83 81 83 90 87 89 87 89 87 86 82 85 85 84 85 83 94 96 95 96 96 93 96 91 83 87 93 95 99 99 100 100 100 99 99 99 100
51 62 77 83 92 92 87 82 80 81 85 90 87 85 89 93 95 95 92 88 85 83 83 96 96 96 96 96 97 96 93 100 100 100 99 100 100 99 99 99 98 98 99 99
47 66 73 82 86 90 89 86 79 76 80 83 89 92 88 89 93 95 91 91 90 94 94 97 97 97 97 97 98 98 99 99 99 99 98 98 99 98 98 98 98 98 98 98
65 67 68 76 82 83 84 82 77 78 80 82 84 86 91 90 93 94 92 93 94 96 94 97 97 98 98 98 98 98 98 99 99 98 98 98 98 98 97 96 96 97 98 98
68 72 81 89 91 88 89 88 92 92 91 76 82 91 95 93 93 91 93 96 96 91 86 83 95 97 97 98 97 98 98 99 98 98 98 97 97 97 98 98 98 98 99 99
78 86 94 96 93 87 88 89 82 89 92 88 89 83 95 93 94 90 92 98 98 94 89 88 89 88 93 97 97 98 97 98 98 97 97 97 98 98 98 98 98 98 98 98
84 84 90 92 92 89 85 84 87 89 92 95 93 93 96 96 98 96 93 96 98 98 94 94 93 89 87 89 94 96 97 97 97 97 97 97 97 98 97 98 98 98 98 98
84 85 87 87 90 88 87 80 72 86 91 90 91 95 94 96 96 94 95 94 94 95 98 98 96 94 88 91 91 91 93 94 96 96 96 96 97 97 97 97 97 97 96 96
80 81 81 82 81 84 77 66 71 84 84 89 86 88 81 86 97 97 94 94 92 92 93 92 95 97 96 94 93 94 94 94 95 94 94 95 96 96 97 97 97 97 97 98
81 84 74 70 76 78 76 75 86 81 85 96 97 97 96 94 91 86 86 88 88 91 94 94 94 94 96 96 97 95 94 93 93 94 94 95 95 96 96 96 96 97 97 98
83 85 86 80 73 74 79 82 87 91 92 96 94 96 95 96 96 94 97 93 93 92 94 91 93 92 93 94 94 95 95 95 96 96 96 95 95 96 96 97 97 97 97 96
Wind_Speed
13 15 16 18 21 16 13 10 8 10 17 16 13 13 12 14 7 9 16 18 14 7 7 8 9 11 10 5 1 1 2 3 4 5 6 6 7 7 8 8 9 10 12 13
14 13 14 19 18 19 17 15 13 12 16 14 15 15 19 17 20 19 18 19 21 20 14 15 13 9 8 12 9 6 5 4 4 5 6 7 7 7 8 7 8 8 11 12
7 6 13 9 10 15 12 12 9 5 4 14 17 15 14 15 15 17 17 16 16 17 16 11 8 8 8 8 6 4 5 6 6 6 6 7 10 7 7 8 6 8 9 8
6 5 4 10 9 13 13 6 10 10 11 11 14 18 7 17 16 14 14 16 15 13 15 16 14 10 7 7 7 7 5 5 6 6 6 6 9 11 8 6 7 7 7 8
2 3 9 11 9 8 4 4 9 10 9 8 12 11 5 16 14 11 11 10 12 13 14 15 16 14 13 12 10 8 8 7 5 5 7 7 7 8 9 6 6 7 6 7
2 5 5 3 19 21 10 3 14 15 16 21 8 8 5 12 14 14 14 11 10 12 14 14 16 17 16 13 11 11 9 8 8 7 7 8 8 7 6 6 7 5 7 7
9 6 5 11 14 17 4 5 14 11 13 12 6 5 8 11 13 13 13 15 12 11 12 15 17 18 18 17 16 13 11 14 13 9 8 8 7 5 6 6 6 5 6 5
2 1 7 9 12 3 7 13 5 11 8 10 12 10 11 14 15 15 16 16 16 16 11 13 17 17 20 20 19 18 15 12 13 14 7 5 7 7 7 5 5 5 4 5
3 5 17 11 10 8 7 3 10 8 10 5 10 9 11 12 13 14 16 14 14 13 17 16 16 15 18 21 20 19 18 18 16 13 10 7 6 6 4 4 4 5 4 4
9 1 16 15 12 9 13 11 14 12 4 7 6 9 13 12 12 13 15 16 15 16 18 20 17 18 19 21 21 20 19 18 16 13 13 9 5 5 4 4 4 6 4 6
12 14 12 11 13 10 14 9 6 7 7 8 9 12 12 13 11 13 15 17 16 17 17 21 21 21 21 20 19 20 19 18 17 13 11 11 7 5 6 5 5 4 6 5
11 13 12 11 10 16 6 5 6 5 6 5 6 11 12 11 12 14 16 18 18 19 21 23 22 24 24 20 19 22 20 16 13 11 10 9 7 4 3 3 8 8 8 9
10 9 15 15 14 3 3 4 4 5 5 7 7 7 11 12 13 17 15 17 18 21 22 22 23 25 24 23 20 22 21 20 14 12 10 11 5 7 5 2 3 3 5 10
19 18 16 14 1 4 4 6 7 8 7 7 8 9 10 11 16 16 18 18 19 20 21 22 22 23 24 23 24 25 23 25 16 12 10 8 8 6 4 3 4 3 2 3
14 13 8 5 3 4 7 8 8 7 8 11 12 12 13 15 15 17 19 19 20 21 21 22 23 25 23 23 25 22 19 16 14 12 7 8 6 5 5 4 4 2 1 4
7 6 4 6 5 7 8 7 5 6 9 12 13 14 13 15 14 16 17 17 18 18 22 21 23 24 24 24 20 14 16 20 15 8 5 5 5 6 4 4 3 4 3 2
5 2 2 2 4 4 5 3 5 6 7 9 11 12 13 13 13 16 17 17 17 18 19 19 22 22 21 19 12 8 9 8 9 5 7 5 5 4 4 4 4 4 3 3
6 5 7 7 5 4 2 3 5 7 7 7 9 13 13 12 13 14 16 17 16 19 18 21 21 21 18 17 14 7 7 3 3 4 5 5 5 4 5 6 6 7 6 5
6 10 8 8 7 5 1 2 4 7 8 8 9 11 11 11 11 13 15 15 16 19 21 21 25 20 18 20 16 9 2 5 6 4 6 9 7 5 6 7 7 8 8 8
9 8 8 7 7 5 2 1 4 3 5 7 9 10 11 11 10 12 12 12 12 13 18 19 19 16 18 20 19 12 11 10 8 6 7 7 7 8 8 10 10 8 7 7
9 8 8 8 5 3 4 5 4 2 3 6 8 8 9 10 9 11 10 10 15 18 18 21 17 15 13 15 14 13 13 10 9 9 9 9 10 11 9 9 8 8 8 8
5 7 7 7 5 5 6 7 6 4 4 1 3 8 6 9 8 9 6 10 9 17 12 12 13 19 15 18 12 13 13 14 12 12 12 12 11 10 10 10 10 9 10 10
5 4 6 6 7 6 6 6 6 6 4 4 4 4 6 5 5 8 9 12 9 12 10 11 18 21 19 13 13 14 15 14 13 13 13 12 12 11 11 11 11 10 10 10
6 6 6 6 6 6 7 7 6 7 5 5 5 2 4 5 3 5 7 10 14 13 10 13 15 18 17 11 13 13 13 13 13 12 12 14 11 10 10 10 10 9 9 9
6 6 6 6 6 5 8 6 3 6 6 5 5 3 4 3 2 4 6 7 11 11 10 15 18 17 12 11 12 12 11 11 11 11 11 11 10 10 9 9 9 8 7 7
6 5 6 7 7 4 3 4 5 3 4 4 1 2 3 3 4 4 5 8 8 10 9 9 10 11 11 12 11 11 11 10 11 10 10 9 9 8 8 7 7 7 6 6
4 4 3 3 4 5 5 4 6 3 3 3 3 1 2 2 3 4 5 6 6 7 8 8 9 11 10 11 11 12 11 11 14 10 8 8 7 7 6 6 5 5 4 4
Wind_Direction
293 307 311 304 302 312 307 290 267 284 288 304 301 326 336 337 315 320 333 327 330 337 330 351 14 9 346 325 297 107 17 360 339 331 311 301 290 272 259 248 239 227 224 219
302 290 282 289 289 287 284 285 276 289 289 347 358 20 2 40 30 22 17 16 2 27 358 20 13 7 6 353 336 1 21 2 344 349 326 300 285 282 288 273 257 236 228 227
270 301 324 316 235 248 268 286 287 293 314 345 342 338 336 33 24 29 15 8 2 360 357 347 357 351 356 343 318 350 355 340 335 324 308 303 287 280 279 282 287 267 249 228
276 312 345 244 292 301 294 0 32 18 4 346 341 337 358 23 19 20 5 358 353 356 348 341 332 335 337 338 330 298 292 294 293 296 297 306 304 280 269 270 272 271 267 247
264 224 268 292 323 18 50 39 19 354 330 329 338 334 0 11 6 354 6 359 345 343 339 339 338 337 343 336 327 317 301 286 268 276 286 282 285 287 275 256 254 259 260 265
172 245 236 27 5 344 309 199 359 346 335 328 355 341 322 357 343 352 352 347 339 342 336 336 337 336 331 325 317 312 298 288 285 268 253 254 264 274 276 252 252 252 262 251
238 266 266 34 1 339 297 294 325 338 324 348 331 289 320 345 359 347 339 339 332 337 332 330 337 337 326 321 309 309 320 314 287 257 248 246 253 260 269 265 257 252 260 281
281 306 274 349 335 305 231 276 316 315 308 320 320 322 337 348 348 351 341 336 333 328 334 334 326 328 318 312 309 317 311 298 301 283 245 234 236 257 271 261 255 253 254 276
261 257 320 348 337 227 243 221 266 258 270 298 329 339 338 333 334 330 326 325 326 325 319 312 309 306 300 298 304 307 306 302 295 294 266 229 214 234 241 229 232 250 224 247
323 323 319 311 298 349 339 328 319 310 349 2 344 335 329 327 329 329 325 321 325 321 312 304 299 293 282 286 291 295 293 293 292 288 277 260 223 203 184 201 234 267 243 252
277 292 298 298 314 313 304 309 360 2 15 353 346 333 326 318 333 325 318 315 316 311 305 298 300 293 287 287 288 283 285 283 283 282 271 262 235 203 187 187 177 225 238 230
265 273 272 287 298 295 317 12 6 16 338 344 346 318 324 330 323 319 315 314 310 307 305 302 297 292 290 289 285 284 280 273 272 276 279 271 229 203 321 191 199 220 236 233
272 293 295 290 286 312 15 15 349 321 309 341 354 344 335 320 314 317 310 311 311 311 307 304 299 293 290 285 274 266 267 268 266 263 263 273 227 195 200 297 53 11 276 245
280 282 285 274 142 318 9 28 25 25 16 2 340 330 315 320 318 317 322 318 314 311 307 303 300 292 289 288 276 264 258 259 255 258 250 247 226 200 166 165 249 278 38 4
259 258 244 96 14 39 69 44 27 4 349 339 331 322 322 321 317 314 320 322 319 315 314 312 308 302 301 288 280 261 252 250 250 249 243 225 196 186 161 156 198 185 21 30
283 288 78 76 44 60 50 35 2 341 346 334 329 327 323 316 312 315 320 322 325 324 322 317 312 309 306 296 277 254 247 244 255 243 232 192 156 168 153 151 164 129 119 103
251 172 134 110 91 75 61 7 355 345 331 335 327 321 317 319 314 327 326 324 324 327 323 323 319 317 315 312 293 273 246 243 247 236 227 173 139 150 148 129 126 119 114 95
146 135 123 130 138 119 64 358 350 329 328 325 328 328 325 326 321 324 323 324 331 336 337 333 328 325 327 330 318 265 269 180 142 151 142 119 124 125 116 114 122 118 111 100
123 118 117 122 131 132 174 47 337 331 335 327 336 333 330 328 322 327 325 329 345 343 339 336 334 338 344 349 351 349 35 118 92 77 96 99 93 101 106 111 108 104 116 115
115 115 124 141 138 142 170 278 286 335 337 331 339 339 333 329 332 333 333 333 345 342 336 339 343 348 356 359 9 14 24 37 57 78 80 87 99 96 91 90 93 98 103 105
152 149 142 140 153 173 222 230 230 199 252 334 344 336 327 325 335 337 342 347 343 348 351 356 358 359 3 7 17 25 28 36 44 60 73 79 79 76 78 80 81 83 82 81
133 149 153 167 176 221 247 240 235 223 207 208 11 343 328 340 344 343 334 353 335 349 353 2 3 7 9 14 19 26 33 40 40 48 53 58 63 66 68 73 75 73 73 73
191 184 179 175 190 220 255 258 246 189 209 192 101 350 339 333 344 352 349 349 351 345 357 2 359 9 16 23 25 26 28 35 40 47 51 54 57 60 63 63 65 67 68 66
192 199 185 187 194 215 240 252 216 181 175 149 111 93 341 348 339 1 344 341 354 360 3 0 7 10 22 23 28 30 33 35 36 42 49 52 54 57 58 60 62 62 64 67
196 186 184 193 208 226 238 203 137 122 138 114 90 66 4 353 0 348 348 349 359 4 6 7 10 13 22 26 29 32 35 37 35 39 40 44 44 47 49 53 55 58 66 61
205 209 207 203 197 188 150 115 125 129 109 122 68 67 2 343 349 5 8 3 9 6 13 10 9 14 17 20 23 33 33 33 36 39 39 42 44 45 46 47 52 56 57 60
211 207 234 211 158 146 127 115 131 133 97 93 109 67 64 2 5 14 11 13 11 13 9 17 14 20 19 20 20 27 26 24 27 26 34 39 40 42 43 45 48 56 59 63